| time (UTC) | temp C | wind direction | speed KPH | gust KPH | rain 1hr cm | rain 24hr cm | rain mn cm | humidity % | barometer mb |
| 20260507010619 | 10 | 23 | 3.2 | 6.4 | 0.00 | 1.32 | 1.32 | 95 | 986.9 |
| 20260507005620 | 10 | 0.0 | 3.2 | 0.00 | 1.32 | 1.32 | 95 | 986.7 | |
| 20260507004618 | 10 | 0 | 1.6 | 8.0 | 0.03 | 1.32 | 1.32 | 94 | 986.3 |
| 20260507003619 | 11 | 0.0 | 3.2 | 0.03 | 1.32 | 1.32 | 95 | 986.3 | |
| 20260507002618 | 11 | 0.0 | 3.2 | 0.05 | 1.32 | 1.32 | 95 | 986.3 | |
| 20260507001619 | 11 | 315 | 3.2 | 6.4 | 0.08 | 1.32 | 1.32 | 95 | 985.8 |
| 20260507000618 | 11 | 0.0 | 0.0 | 0.23 | 1.32 | 1.32 | 95 | 985.7 | |
| 20260506235619 | 12 | 0.0 | 1.6 | 0.38 | 1.32 | 1.32 | 94 | 985.5 | |
| 20260506234620 | 12 | 315 | 4.8 | 8.0 | 0.36 | 1.30 | 1.30 | 94 | 985.4 |
| 20260506233618 | 13 | 0.0 | 1.6 | 0.36 | 1.30 | 1.30 | 94 | 985.2 | |
| 20260506232618 | 13 | 315 | 4.8 | 12.9 | 0.33 | 1.27 | 1.27 | 95 | 984.9 |
| 20260506231618 | 14 | 293 | 8.0 | 11.3 | 0.30 | 1.24 | 1.24 | 95 | 984.8 |
| 20260506230619 | 14 | 248 | 8.0 | 12.9 | 0.20 | 1.09 | 1.09 | 95 | 984.5 |
| 20260506225618 | 14 | 225 | 6.4 | 12.9 | 0.13 | 0.94 | 0.94 | 95 | 984.3 |
| 20260506224620 | 14 | 225 | 1.6 | 3.2 | 0.13 | 0.94 | 0.94 | 95 | 984.3 |
| 20260506223633 | 14 | 225 | 6.4 | 11.3 | 0.13 | 0.94 | 0.94 | 94 | 984.3 |
| 20260506223551 | 14 | 225 | 6.4 | 12.9 | 0.13 | 0.94 | 0.94 | 94 | 984.4 |
| 20260506222524 | 14 | 203 | 1.6 | 8.0 | 0.13 | 0.94 | 0.94 | 94 | 984.4 |
| 20260506221628 | 14 | 225 | 8.0 | 17.7 | 0.13 | 0.94 | 0.94 | 94 | 984.3 |
| 20260506220618 | 14 | 180 | 6.4 | 19.3 | 0.08 | 0.89 | 0.89 | 94 | 984.3 |
| 20260506215618 | 14 | 225 | 11.3 | 17.7 | 0.00 | 0.81 | 0.81 | 94 | 984.1 |
| 20260506214618 | 14 | 225 | 19.3 | 29.0 | 0.00 | 0.81 | 0.81 | 94 | 984.0 |
| 20260506213620 | 14 | 248 | 9.7 | 22.5 | 0.03 | 0.81 | 0.81 | 94 | 984.1 |
| 20260506212618 | 14 | 203 | 14.5 | 27.4 | 0.03 | 0.81 | 0.81 | 94 | 984.3 |
| 20260506211738 | 15 | 248 | 14.5 | 27.4 | 0.03 | 0.81 | 0.81 | 94 | 984.3 |
| 20260506205921 | 15 | 158 | 11.3 | 19.3 | 0.03 | 0.81 | 0.81 | 94 | 984.2 |
| 20260506204921 | 15 | 225 | 6.4 | 12.9 | 0.03 | 0.81 | 0.81 | 93 | 984.3 |
| 20260506203919 | 15 | 203 | 12.9 | 24.1 | 0.00 | 0.79 | 0.79 | 93 | 984.2 |
| 20260506202918 | 15 | 225 | 17.7 | 24.1 | 0.03 | 0.79 | 0.79 | 93 | 984.3 |
| 20260506201918 | 15 | 203 | 11.3 | 20.9 | 0.03 | 0.79 | 0.79 | 93 | 984.4 |
| 20260506200918 | 15 | 158 | 9.7 | 29.0 | 0.03 | 0.79 | 0.79 | 93 | 984.4 |
| 20260506195918 | 15 | 180 | 14.5 | 27.4 | 0.05 | 0.79 | 0.79 | 93 | 984.4 |
| 20260506194933 | 15 | 225 | 11.3 | 19.3 | 0.08 | 0.79 | 0.79 | 94 | 984.6 |
| 20260506193923 | 15 | 180 | 4.8 | 11.3 | 0.18 | 0.79 | 0.79 | 94 | 984.6 |
| 20260506193033 | 15 | 203 | 6.4 | 16.1 | 0.28 | 0.76 | 0.76 | 94 | 984.6 |
| 20260506192825 | 15 | 203 | 6.4 | 19.3 | 0.28 | 0.76 | 0.76 | 94 | 984.8 |
| 20260506191920 | 15 | 180 | 9.7 | 17.7 | 0.33 | 0.76 | 0.76 | 94 | 984.8 |
| 20260506190920 | 15 | 203 | 6.4 | 16.1 | 0.36 | 0.76 | 0.76 | 94 | 984.8 |
| 20260506185919 | 15 | 225 | 3.2 | 6.4 | 0.36 | 0.74 | 0.74 | 94 | 984.8 |
| 20260506184920 | 15 | 158 | 9.7 | 17.7 | 0.36 | 0.71 | 0.71 | 94 | 985.1 |
| 20260506183919 | 15 | 203 | 4.8 | 8.0 | 0.28 | 0.61 | 0.61 | 94 | 985.4 |
| 20260506182918 | 15 | 225 | 8.0 | 14.5 | 0.20 | 0.48 | 0.48 | 93 | 985.3 |
| 20260506181927 | 15 | 203 | 11.3 | 25.7 | 0.23 | 0.43 | 0.43 | 93 | 985.5 |
| 20260506180922 | 15 | 203 | 6.4 | 16.1 | 0.23 | 0.41 | 0.41 | 93 | 985.6 |
| 20260506175919 | 15 | 225 | 14.5 | 30.6 | 0.25 | 0.38 | 0.38 | 93 | 985.9 |
| 20260506174920 | 15 | 225 | 14.5 | 25.7 | 0.25 | 0.36 | 0.36 | 93 | 986.3 |
| 20260506173920 | 15 | 225 | 6.4 | 16.1 | 0.28 | 0.33 | 0.33 | 93 | 986.5 |
| 20260506172921 | 15 | 225 | 9.7 | 17.7 | 0.25 | 0.28 | 0.28 | 92 | 986.7 |
| 20260506171920 | 15 | 203 | 9.7 | 17.7 | 0.18 | 0.20 | 0.20 | 92 | 986.8 |
| 20260506170948 | 15 | 203 | 6.4 | 17.7 | 0.18 | 0.18 | 0.18 | 92 | 986.7 |
| 20260506170445 | 15 | 203 | 9.7 | 19.3 | 0.13 | 0.13 | 0.13 | 91 | 986.7 |
| 20260506170126 | 15 | 225 | 1.6 | 6.4 | 0.13 | 0.13 | 0.13 | 91 | 986.6 |
| 20260506165849 | 15 | 225 | 9.7 | 14.5 | 0.13 | 0.13 | 0.13 | 91 | 986.6 |
| 20260506165350 | 15 | 225 | 3.2 | 9.7 | 0.10 | 0.10 | 0.10 | 90 | 986.6 |
| 20260506165157 | 15 | 180 | 8.0 | 14.5 | 0.10 | 0.10 | 0.10 | 90 | 986.6 |
| 20260506164912 | 15 | 225 | 11.3 | 17.7 | 0.08 | 0.08 | 0.08 | 90 | 986.6 |
| 20260506163719 | 15 | 248 | 4.8 | 14.5 | 0.05 | 0.05 | 0.05 | 89 | 986.8 |
| 20260506162720 | 15 | 225 | 3.2 | 8.0 | 0.03 | 0.03 | 0.03 | 88 | 986.9 |
| 20260506161719 | 16 | 225 | 1.6 | 3.2 | 0.00 | 0.00 | 0.00 | 86 | 987.0 |
| 20260506160720 | 16 | 203 | 12.9 | 22.5 | 0.00 | 0.00 | 0.00 | 85 | 986.9 |
| 20260506155910 | 16 | 225 | 4.8 | 11.3 | 0.00 | 0.00 | 0.00 | 85 | 987.1 |
| 20260506154719 | 16 | 180 | 6.4 | 17.7 | 0.00 | 0.00 | 0.00 | 85 | 987.3 |
| 20260506153817 | 15 | 225 | 11.3 | 16.1 | 0.00 | 0.00 | 0.00 | 84 | 987.5 |
| 20260506153437 | 15 | 225 | 9.7 | 14.5 | 0.00 | 0.00 | 0.00 | 85 | 987.5 |
| 20260506153246 | 15 | 225 | 3.2 | 6.4 | 0.00 | 0.00 | 0.00 | 86 | 987.5 |
| 20260506152628 | 15 | 225 | 4.8 | 8.0 | 0.00 | 0.00 | 0.00 | 85 | 987.6 |
| 20260506151714 | 15 | 225 | 6.4 | 14.5 | 0.00 | 0.00 | 0.00 | 83 | 987.9 |
| 20260506150922 | 16 | 225 | 8.0 | 14.5 | 0.00 | 0.00 | 0.00 | 82 | 988.1 |
| 20260506145920 | 16 | 203 | 6.4 | 11.3 | 0.00 | 0.00 | 0.00 | 81 | 988.1 |
| 20260506144922 | 16 | 225 | 9.7 | 19.3 | 0.00 | 0.00 | 0.00 | 80 | 988.1 |
| 20260506143921 | 16 | 225 | 1.6 | 4.8 | 0.00 | 0.00 | 0.00 | 80 | 988.0 |
| 20260506142920 | 16 | 225 | 3.2 | 6.4 | 0.00 | 0.00 | 0.00 | 80 | 987.8 |
| 20260506141919 | 16 | 225 | 6.4 | 16.1 | 0.00 | 0.00 | 0.00 | 80 | 987.8 |
| 20260506140918 | 16 | 203 | 1.6 | 8.0 | 0.00 | 0.00 | 0.00 | 81 | 987.9 |
| 20260506135920 | 15 | 293 | 1.6 | 8.0 | 0.00 | 0.00 | 0.00 | 82 | 987.8 |
| 20260506134922 | 15 | 203 | 9.7 | 19.3 | 0.00 | 0.00 | 0.00 | 83 | 987.8 |
| 20260506133919 | 15 | 158 | 3.2 | 14.5 | 0.00 | 0.00 | 0.00 | 84 | 987.9 |
| 20260506132919 | 15 | 0.0 | 3.2 | 0.00 | 0.00 | 0.00 | 84 | 987.8 | |
| 20260506131919 | 14 | 225 | 4.8 | 9.7 | 0.00 | 0.00 | 0.00 | 84 | 987.9 |
| 20260506130919 | 14 | 225 | 9.7 | 17.7 | 0.00 | 0.00 | 0.00 | 84 | 988.2 |
| 20260506125920 | 14 | 180 | 9.7 | 16.1 | 0.00 | 0.00 | 0.00 | 84 | 988.4 |
| 20260506124922 | 14 | 248 | 3.2 | 12.9 | 0.00 | 0.00 | 0.00 | 85 | 988.4 |
| 20260506124026 | 14 | 225 | 8.0 | 9.7 | 0.00 | 0.00 | 0.00 | 85 | 988.6 |
| 20260506123419 | 14 | 225 | 14.5 | 22.5 | 0.00 | 0.00 | 0.00 | 85 | 988.4 |
| 20260506122419 | 13 | 248 | 6.4 | 14.5 | 0.00 | 0.00 | 0.00 | 85 | 988.1 |
| 20260506121419 | 13 | 203 | 4.8 | 8.0 | 0.00 | 0.00 | 0.00 | 85 | 988.0 |
| 20260506120419 | 13 | 180 | 1.6 | 6.4 | 0.00 | 0.00 | 0.00 | 85 | 988.0 |
| 20260506115419 | 13 | 180 | 6.4 | 11.3 | 0.00 | 0.00 | 0.00 | 85 | 988.1 |
| 20260506114419 | 13 | 0.0 | 0.0 | 0.00 | 0.00 | 0.00 | 85 | 988.4 | |
| 20260506113425 | 13 | 203 | 6.4 | 9.7 | 0.00 | 0.00 | 0.00 | 85 | 988.5 |
| 20260506112524 | 13 | 225 | 1.6 | 6.4 | 0.00 | 0.00 | 0.00 | 85 | 988.2 |
| 20260506112334 | 13 | 225 | 1.6 | 3.2 | 0.00 | 0.00 | 0.00 | 85 | 988.3 |
| 20260506112034 | 13 | 203 | 3.2 | 8.0 | 0.00 | 0.00 | 0.00 | 85 | 988.2 |
| 20260506111834 | 13 | 203 | 3.2 | 8.0 | 0.00 | 0.00 | 0.00 | 85 | 988.2 |
| 20260506111131 | 13 | 225 | 6.4 | 8.0 | 0.00 | 0.00 | 0.00 | 85 | 988.2 |
| 20260506110042 | 13 | 248 | 4.8 | 11.3 | 0.00 | 0.00 | 0.00 | 85 | 988.4 |
| 20260506105420 | 13 | 225 | 1.6 | 6.4 | 0.00 | 0.00 | 0.00 | 85 | 988.3 |
| 20260506104421 | 13 | 225 | 4.8 | 9.7 | 0.00 | 0.00 | 0.00 | 85 | 988.3 |
| 20260506103419 | 13 | 203 | 1.6 | 11.3 | 0.00 | 0.00 | 0.00 | 85 | 988.2 |
| 20260506102525 | 13 | 203 | 4.8 | 8.0 | 0.00 | 0.00 | 0.00 | 84 | 988.2 |
| 20260506101851 | 13 | 225 | 1.6 | 4.8 | 0.00 | 0.00 | 0.00 | 84 | 988.3 |
| 20260506101348 | 13 | 225 | 3.2 | 8.0 | 0.00 | 0.00 | 0.00 | 83 | 988.3 |
| 20260506101137 | 13 | 225 | 3.2 | 6.4 | 0.00 | 0.00 | 0.00 | 83 | 988.4 |
| 20260506100850 | 13 | 225 | 1.6 | 6.4 | 0.00 | 0.00 | 0.00 | 82 | 988.4 |
| 20260506100432 | 13 | 0.0 | 1.6 | 0.00 | 0.00 | 0.00 | 82 | 988.3 | |
| 20260506100232 | 13 | 225 | 1.6 | 6.4 | 0.00 | 0.00 | 0.00 | 82 | 988.3 |
| 20260506095833 | 13 | 225 | 1.6 | 4.8 | 0.00 | 0.00 | 0.00 | 82 | 988.4 |
| 20260506094930 | 13 | 225 | 1.6 | 4.8 | 0.00 | 0.00 | 0.00 | 82 | 988.4 |
| 20260506094519 | 13 | 0.0 | 0.0 | 0.00 | 0.00 | 0.00 | 82 | 988.2 | |
| 20260506093519 | 13 | 225 | 1.6 | 4.8 | 0.00 | 0.00 | 0.00 | 82 | 988.4 |
| 20260506092519 | 13 | 225 | 6.4 | 11.3 | 0.00 | 0.00 | 0.00 | 81 | 988.7 |
| 20260506091521 | 13 | 225 | 3.2 | 8.0 | 0.00 | 0.00 | 0.00 | 81 | 988.7 |
| 20260506090519 | 13 | 225 | 3.2 | 9.7 | 0.00 | 0.00 | 0.00 | 81 | 988.6 |
| 20260506085520 | 13 | 203 | 1.6 | 6.4 | 0.00 | 0.00 | 0.00 | 80 | 988.7 |
| 20260506084523 | 13 | 225 | 3.2 | 6.4 | 0.00 | 0.00 | 0.00 | 80 | 988.9 |
| 20260506083519 | 13 | 225 | 4.8 | 6.4 | 0.00 | 0.00 | 0.00 | 80 | 989.0 |
| 20260506082527 | 14 | 225 | 1.6 | 4.8 | 0.00 | 0.00 | 0.00 | 79 | 988.9 |
| 20260506081519 | 14 | 225 | 4.8 | 11.3 | 0.00 | 0.00 | 0.00 | 79 | 989.1 |
| 20260506080519 | 14 | 180 | 1.6 | 4.8 | 0.00 | 0.00 | 0.00 | 78 | 989.2 |
| 20260506073519 | 14 | 180 | 1.6 | 9.7 | 0.00 | 0.00 | 0.00 | 77 | 989.3 |
| 20260506072524 | 14 | 225 | 4.8 | 12.9 | 0.00 | 0.00 | 0.00 | 77 | 989.2 |
| 20260506071526 | 14 | 203 | 4.8 | 8.0 | 0.00 | 0.00 | 0.00 | 77 | 989.1 |
| 20260506070519 | 15 | 225 | 3.2 | 6.4 | 0.00 | 0.00 | 0.00 | 76 | 989.3 |
| 20260506061519 | 15 | 248 | 6.4 | 8.0 | 0.00 | 0.00 | 0.00 | 74 | 989.4 |
| 20260506060540 | 15 | 158 | 3.2 | 14.5 | 0.00 | 0.00 | 0.00 | 74 | 989.4 |
| 20260506060419 | 15 | 225 | 1.6 | 4.8 | 0.00 | 0.00 | 0.00 | 74 | 989.3 |
| 20260506050421 | 16 | 225 | 4.8 | 8.0 | 0.00 | 0.00 | 0.00 | 72 | 989.4 |
| 20260506044524 | 16 | 225 | 11.3 | 19.3 | 0.00 | 0.00 | 0.00 | 72 | 989.5 |
| 20260506043618 | 16 | 225 | 6.4 | 14.5 | 0.00 | 0.00 | 0.00 | 73 | 989.2 |
| 20260506042618 | 17 | 225 | 8.0 | 12.9 | 0.00 | 0.00 | 0.00 | 73 | 989.4 |
| 20260506041618 | 17 | 225 | 6.4 | 9.7 | 0.00 | 0.00 | 0.00 | 73 | 989.2 |
| 20260506040618 | 17 | 180 | 11.3 | 16.1 | 0.00 | 0.00 | 0.00 | 73 | 989.0 |
| 20260506035618 | 17 | 180 | 4.8 | 11.3 | 0.00 | 0.00 | 0.00 | 73 | 988.9 |
| 20260506034624 | 17 | 203 | 4.8 | 11.3 | 0.00 | 0.00 | 0.00 | 73 | 989.1 |
| 20260506033621 | 17 | 180 | 6.4 | 9.7 | 0.00 | 0.00 | 0.00 | 73 | 989.1 |
| 20260506032618 | 17 | 180 | 8.0 | 16.1 | 0.00 | 0.00 | 0.00 | 73 | 989.2 |
| 20260506031730 | 17 | 225 | 8.0 | 12.9 | 0.00 | 0.00 | 0.00 | 73 | 989.1 |
| 20260506031318 | 17 | 248 | 8.0 | 14.5 | 0.00 | 0.00 | 0.00 | 73 | 989.1 |
| 20260506030319 | 17 | 248 | 3.2 | 8.0 | 0.00 | 0.00 | 0.00 | 73 | 989.0 |
| 20260506025320 | 17 | 225 | 1.6 | 4.8 | 0.00 | 0.00 | 0.00 | 73 | 988.8 |
| 20260506024320 | 17 | 180 | 6.4 | 12.9 | 0.00 | 0.00 | 0.00 | 73 | 988.9 |
| 20260506023319 | 17 | 203 | 3.2 | 9.7 | 0.00 | 0.00 | 0.00 | 73 | 988.8 |
| 20260506022322 | 17 | 225 | 3.2 | 9.7 | 0.00 | 0.00 | 0.00 | 73 | 988.8 |
| 20260506021319 | 17 | 203 | 4.8 | 11.3 | 0.00 | 0.00 | 0.00 | 73 | 988.8 |
| 20260506020320 | 17 | 203 | 4.8 | 8.0 | 0.00 | 0.00 | 0.00 | 73 | 988.8 |
| 20260506015318 | 17 | 248 | 1.6 | 4.8 | 0.00 | 0.00 | 0.00 | 74 | 988.4 |
| 20260506014318 | 17 | 225 | 1.6 | 4.8 | 0.00 | 0.00 | 0.00 | 75 | 988.3 |
| 20260506013321 | 17 | 203 | 1.6 | 4.8 | 0.00 | 0.00 | 0.00 | 76 | 988.3 |
| 20260506012319 | 17 | 203 | 1.6 | 3.2 | 0.00 | 0.00 | 0.00 | 74 | 988.1 |
| 20260506011319 | 17 | 0.0 | 3.2 | 0.00 | 0.00 | 0.00 | 73 | 988.0 |